#timestamp,LO_Frequency,Hit 
1503032415.2,286047002.3,N
1503032435.0,286046999.8,N
1503032435.9,286046999.8,N
1503032455.8,286047000.8,N
1503032475.6,286047002.2,N
1503032495.4,286047005.6,N
1503032515.3,286047003.5,N
1503032535.1,286047005.2,N
1503032555.8,286047005.0,N
1503032575.7,286047003.8,N
1503032595.5,286047002.6,N
1503032615.3,286047001.6,N
1503032635.2,286047002.6,N
1503032655.9,286047002.1,N
1503032675.7,286047000.3,N
1503032695.6,286047002.3,N
1503032715.4,286047004.1,N
1503032735.2,286047004.9,N
1503032755.1,286047003.4,N
1503032756.0,286047003.4,N
1503032775.8,286047003.1,N
1503032795.6,286047002.2,N
1503032815.4,286047000.3,N
1503032835.3,286047000.8,N
1503032855.1,286046997.0,N
1503032875.8,286046995.6,N
1503032895.7,286046999.4,N
1503032915.5,286046999.5,N
1503032935.3,286046998.5,N
1503032955.2,286047000.0,N
1503032975.9,286047000.8,N
1503032995.7,286047000.8,N
1503033015.6,286047000.0,N
1503033035.4,286047001.0,N
1503033055.2,286047000.9,N
1503033075.1,286046999.7,N
1503033076.0,286046999.7,N
1503033095.8,286047005.1,N
1503033115.6,286047007.1,P
1503033135.5,286047005.3,N
1503033155.3,286047005.4,N
1503033175.1,286047003.5,N
1503033195.9,286047002.0,N
1503033215.7,286047004.0,N
1503033235.5,286047004.4,N
1503033255.6,286047002.1,N
1503033275.4,286046999.7,N
1503033295.2,286046999.3,N
1503033315.1,286047000.2,N
1503033316.0,286047000.2,N
1503033335.8,286047000.6,N
1503033355.6,286047001.6,N
1503033375.5,286046999.8,N
1503033395.3,286046998.1,N
1503033415.1,286046999.3,N
1503033435.9,286046997.0,N
1503033455.7,286046996.5,N
1503033475.5,286046995.0,N
1503033495.4,286046997.1,N
1503033515.2,286046995.3,N
1503033535.0,286046996.7,N
1503033535.9,286046996.7,N
1503033555.8,286046997.5,N
1503033575.6,286046999.0,N
1503033595.4,286046996.6,N
1503033615.3,286046998.5,N
1503033635.1,286046999.1,N
1503033636.0,286046999.1,N
1503033655.8,286046995.8,N
1503033675.7,286046992.8,N
1503033695.5,286046996.3,N
1503033715.3,286046997.4,N
1503033735.1,286046995.1,N
1503033755.9,286046995.3,N
1503033775.7,286046994.5,N
1503033795.6,286046988.9,P
1503033815.4,286046989.5,N
1503033835.2,286046988.1,N
1503033855.0,286046988.9,N
1503033856.0,286046988.9,P
1503033875.8,286046998.5,N
1503033895.6,286047000.3,N
1503033915.5,286047000.1,N
1503033935.3,286047003.0,N
1503033955.1,286047003.0,N
1503033975.8,286047005.4,N
1503033995.7,286047007.2,N
1503034015.5,286047007.4,N
1503034035.3,286047004.6,N
1503034055.2,286047004.1,N
1503034075.9,286047003.6,N
1503034095.7,286047006.0,N
1503034115.6,286047003.7,N
1503034135.4,286047004.9,N
1503034155.2,286047005.3,N
1503034175.1,286047007.4,N
1503034176.0,286047007.4,N
1503034195.8,286047004.6,N
1503034215.6,286047010.4,N
1503034235.5,286047010.4,N
1503034255.3,286047011.6,N
1503034275.1,286047012.2,N
1503034295.9,286047009.9,N
1503034315.7,286047011.4,N
1503034335.5,286047012.8,N
1503034355.3,286047013.5,N
1503034375.2,286047011.8,N
1503034395.0,286047009.4,N
1503034395.9,286047009.4,N
1503034415.7,286047010.2,N
1503034435.6,286047007.8,N
1503034455.6,286047010.1,N
1503034475.4,286047010.1,N
1503034495.3,286047011.0,P
1503034515.1,286047004.4,N
1503034535.8,286047004.3,N
1503034555.7,286047002.0,N
1503034575.5,286046999.7,N
1503034595.3,286046999.8,N
1503034615.2,286047000.1,N
1503034635.9,286046999.9,N
1503034655.7,286047000.0,N
1503034675.6,286047001.5,N
1503034695.4,286047003.3,N
1503034715.2,286047006.4,N
1503034735.0,286047006.1,N
1503034736.0,286047006.1,N
1503034755.8,286047008.9,N
1503034775.6,286047007.3,N
1503034795.4,286047004.5,N
1503034815.3,286047006.7,N
1503034835.1,286047004.9,N
1503034855.8,286047007.2,N
1503034875.7,286047006.9,N
1503034895.5,286047002.9,N
1503034915.3,286047005.7,N
1503034935.2,286047003.5,N
1503034955.9,286047004.2,N
1503034975.7,286047004.2,N
1503034995.6,286047005.6,N
1503035015.4,286047003.1,N
1503035035.2,286047003.0,N
1503035055.1,286047005.5,N
1503035056.0,286047005.5,N
1503035075.8,286047005.0,N
1503035095.6,286047005.5,N
1503035115.5,286047001.4,N
1503035135.3,286047001.8,N
1503035155.1,286047002.4,N
1503035175.8,286047001.6,N
1503035195.7,286047002.5,N
1503035215.5,286047002.6,N
1503035235.3,286047000.5,N
1503035255.2,286047000.5,N
1503035275.9,286047000.4,N
1503035295.7,286047000.0,N
1503035315.6,286046998.6,N
1503035335.4,286046999.3,N
1503035355.2,286046998.9,N
1503035375.1,286046999.7,N
1503035376.0,286046999.7,N
1503035395.8,286047001.2,N
1503035415.6,286047002.1,N
1503035435.5,286046998.1,N
1503035455.3,286046998.2,N
1503035475.1,286046998.7,N
1503035495.5,286046997.2,N
1503035515.3,286047001.2,N
1503035535.2,286046999.8,N
1503035555.9,286047002.3,N
1503035575.7,286047000.2,N
1503035595.6,286046999.9,N
1503035615.4,286046998.9,N
1503035635.2,286046997.0,N
1503035655.1,286046995.5,N
1503035656.0,286046995.5,N
1503035675.8,286046993.7,P
1503035695.6,286046995.9,N
1503035715.5,286046994.0,N
1503035735.3,286046993.6,N
1503035755.1,286046994.9,N
1503035775.9,286046993.9,N
1503035795.7,286046993.8,P
1503035815.5,286047000.4,N
1503035835.4,286047000.2,N
1503035855.2,286047000.2,N
1503035875.0,286047000.2,N
1503035875.9,286047000.2,N
1503035895.8,286047004.3,N
1503035915.6,286047003.0,N
1503035935.4,286047003.8,N
1503035955.3,286047003.2,N
1503035975.1,286047001.7,N
1503035976.0,286047001.7,N
1503035995.8,286047000.5,N
